Regional Weather Roundup
Issued by NWS Upton, NY

Current Version | Previous Version | Text Only | Print | Product List | Glossary On
Versions: 1 2 3 4 5 6 7 8 9 10 11 12 13 14 15 16 17 18 19 20 21 22 23 24 25 26 27
000 ASUS41 KOKX 240605 RWROKX REGIONAL WEATHER ROUNDUP NATIONAL WEATHER SERVICE NEW YORK NY 200 AM EDT FRI OCT 24 2014 NOTE: "FAIR" INDICATES FEW OR NO CLOUDS BELOW 12,000 FEET WITH NO SIGNIFICANT WEATHER AND/OR OBSTRUCTIONS TO VISIBILITY. NYZ071-072-176-178-NJZ106-104-240700- NEW YORK CITY METRO AREA CITY SKY/WX TMP DP RH WIND PRES REMARKS CENTRAL PARK CLOUDY 52 43 71 VRB5 29.79S LAGUARDIA APRT CLOUDY 52 45 77 NW13G23 29.75F KENNEDY INTL CLOUDY 53 45 74 N14 29.76R NEWARK/LIBERTY CLOUDY 53 43 68 NW9 29.77S BRNX BOT. GARD N/A 50 43 76 NW1 29.76F TETERBORO CLOUDY 52 42 69 N6 29.76F $$ NYZ177-179-078>081-240700- LONG ISLAND NEW YORK CITY SKY/WX TMP DP RH WIND PRES REMARKS FARMINGDALE CLOUDY 52 46 80 N12 29.74S ISLIP CLOUDY 52 46 80 N15 29.70S SHIRLEY CLOUDY 51 46 83 NW13G23 29.71S WESTHAMPTON CLOUDY 53 47 79 N15 29.70S MONTAUK POINT N/A 55 49 80 N16G23 29.67S $$ NYZ052-065-067-240700- HUDSON VALLEY CITY SKY/WX TMP DP RH WIND PRES REMARKS WHITE PLAINS MOCLDY 50 44 80 N20G25 29.74F NEWBURGH NOT AVBL MONTGOMERY CLOUDY 49 42 77 NW7 29.79F POUGHKEEPSIE CLOUDY 50 45 83 N6 29.79F ALBANY DRIZZLE 47 44 90 N6 29.84S $$ NJZ001-105-106-008-010-013-015-019>022-104-240700- NEW JERSEY CITY SKY/WX TMP DP RH WIND PRES REMARKS NEWARK/LIBERTY CLOUDY 53 43 68 NW9 29.77S TETERBORO CLOUDY 52 42 69 N6 29.76F CALDWELL CLOUDY 51 41 68 CALM 29.79R MORRISTOWN MOCLDY 54 43 66 NW7 29.79R SOMERVILLE MOCLDY 52 42 69 NW6 29.78S SUSSEX CLOUDY 52 42 69 NW8G20 29.81R ANDOVER N/A 49 42 77 VRB3 29.81S TRENTON MOCLDY 50 43 77 NW7 29.80S MILLVILLE CLEAR 52 45 77 NW8 29.82R ATLANTIC CITY CLEAR 49 44 83 NW9 29.79S WRIGHTSTOWN CLOUDY 52 44 75 NW14 29.78S TOMS RIVER CLOUDY 52 43 71 NW6 29.78S BELMAR CLOUDY 52 41 66 NW12 29.77R $$ PAZ047>061-062-071-240700- EASTERN PENNSYLVANIA CITY SKY/WX TMP DP RH WIND PRES REMARKS PHILADELPHIA CLOUDY 55 44 66 NW9 29.83R ALLENTOWN CLOUDY 53 44 71 NW15 29.83S SCRANTON CLOUDY 51 44 77 N7 29.86F $$ CTZ002-004>006-009-010-012-RIZ004-006-007-MAZ004-011-015-240700- SOUTHERN NEW ENGLAND IN CT CITY SKY/WX TMP DP RH WIND PRES REMARKS BRADLEY INTL CLOUDY 51 46 83 NW7 29.72R HARTFORD CLOUDY 51 46 83 VRB7 29.72S DANBURY LGT RAIN 48 43 82 N7 29.77S WTRBRY/OXFORD MOCLDY 46 39 76 NW10 29.73F BRIDGEPORT CLOUDY 51 45 79 NW13G25 29.72F MERIDEN LGT RAIN 50 45 83 NW10 29.72F NEW HAVEN CLOUDY 52 45 77 NW13G20 29.71F CHESTER CLOUDY 50 48 93 N15 29.69F GROTON CLOUDY 51 49 92 N13 29.66S WILLIMANTIC CLOUDY 51 48 89 N8 29.70R IN RI CITY SKY/WX TMP DP RH WIND PRES REMARKS PROVIDENCE LGT RAIN 50 48 93 N13G22 29.66R FOG BLOCK ISLAND CLOUDY 54 46 76 N20G30 29.64S WESTERLY CLOUDY 53 48 83 N13 29.67R IN MA CITY SKY/WX TMP DP RH WIND PRES REMARKS BOSTON CLOUDY 48 48 100 N14G21 29.66S WORCESTER LGT RAIN 48 46 93 N10G21 29.69R WESTFIELD CLOUDY 51 45 79 N10 29.73R PROVINCETOWN CLOUDY 52 0 11 N24G33 29.58F NANTUCKET LGT RAIN 56 54 93 N21G29 29.53R FOG $$ ANZ330-335-338-340-345-350-353-355-240700- COASTAL MARINE OBSERVATIONS STATION/POSITION TIME SKY/WX TEMP WIND PRES VSBY WAVE AIR SEA DIR/SP/G HT/PER (UTC) (F) (DEG/KT/KT) (MB) (MI) (FT/S) NY HARB ENTRANCE NOT AVBL 4S FIRE IS 0600 63 N/A 3/ 8 20S FIRE ISLAND 0600 55 63 340/ 23/ 29 1005.5 6/ 5 23SW MTP 0600 N/A 7/ 6 HUDSON CANYON 0600 56 66 340/ 21/ 27 1004.8 10/ 7 EXECUTION ROCKS 0600 54 62 340/ 19/ 31 N/A WESTERN LI SOUND NOT AVBL CENTRAL LI SOUND 0500 54 63 320/ 19/ 23 N/A 3/ 3 EASTERN LI SOUND 0500 55 63 340/ 16/ 21 N/A ROBBINS REEF 0600 53 330/ 10/ 15 1006.9 $$ >>>>>>>>>>>>>>>>>>>>>>>>>>>> KEY <<<<<<<<<<<<<<<<<<<<<<<<<<< > < > SKY/WX - SKY CONDITION/PRESENT WEATHER < > TMP - TEMPERATURE IN FAHRENHEIT < > DP - DEWPOINT IN FAHRENHEIT < > RH - RELATIVE HUMIDITY IN PERCENT < > WIND - DIRECTION AND SPEED IN MPH < > PRES - MEAN SEA LEVEL PRESSURE IN INCHES OF HG < > WCI - WIND CHILL INDEX < > VSB - VISIBILITY IN MILES < > HX - HEAT INDEX < > TC - TEMPERATURE IN CELSIUS < > VRB - VARIABLE WIND DIRECTION < > < >>>>>>>>>>>>>>>>>>>>>>>>>>>> KEY <<<<<<<<<<<<<<<<<<<<<<<<<<<

USA.gov is the U.S. government's official web portal to all federal, state and local government web resources and services.